CAPE
0 0 0 13 6 10 7 7 4 5 4 3 3 1 0 0 0 0 0 0 0 1 0 1 1 1 3 10 6 4 6 6 7 6 7 10 11 23 74 412 394 452 288
0 0 0 9 3 4 5 3 3 2 3 1 0 0 0 0 0 0 0 0 0 1 2 2 3 5 1 1 5 11 9 5 16 9 8 6 3 15 12 39 322 444 285
0 0 0 4 3 2 2 2 2 0 0 0 0 0 0 0 0 0 0 0 0 0 0 1 2 3 1 0 3 3 5 13 9 11 11 3 5 6 9 9 103 384 271
0 0 0 3 2 1 2 0 0 0 0 0 0 0 0 0 0 0 0 0 0 0 0 0 0 0 0 1 1 0 3 7 23 17 13 9 4 3 5 8 9 198 409
0 0 0 0 0 0 0 0 0 0 0 0 0 0 0 0 0 0 0 0 0 0 0 0 0 0 0 1 0 1 1 1 5 13 4 4 8 6 5 10 11 13 270
0 0 0 0 0 0 0 0 0 0 0 0 0 0 0 0 0 0 0 0 0 0 0 0 0 0 0 0 3 5 5 2 1 5 11 3 8 7 11 22 15 25 31
0 0 0 0 0 0 0 0 0 0 0 0 0 0 0 0 0 0 0 0 0 0 0 0 0 0 0 0 0 3 9 21 10 0 4 7 6 28 13 24 23 14 60
0 0 0 0 0 0 0 0 0 0 0 0 0 0 0 0 0 0 0 0 0 0 0 0 0 0 1 2 0 0 1 8 4 2 8 12 5 12 35 37 33 17 49
0 0 0 0 0 0 0 0 0 0 0 0 0 0 0 0 0 0 0 0 0 0 0 0 0 0 0 0 0 1 0 6 5 5 10 8 16 29 41 35 27 24 31
0 0 0 0 0 0 0 0 0 0 0 0 0 0 0 0 0 0 0 0 0 0 0 0 0 0 0 0 0 0 1 1 0 3 7 12 12 37 35 30 29 24 12
0 0 0 0 0 0 0 0 0 0 0 0 0 0 0 0 0 0 0 0 0 0 0 0 0 0 0 0 0 0 0 0 1 4 7 14 26 40 29 34 37 27 21
0 0 0 0 0 0 0 0 0 0 0 0 0 0 0 0 0 0 0 0 0 0 0 0 0 0 0 0 0 0 0 2 1 5 6 7 31 36 43 58 52 43 37
0 0 0 0 0 0 0 0 0 0 0 0 0 0 0 0 0 0 0 0 0 0 0 0 0 0 0 0 0 0 0 4 2 1 2 9 19 33 29 29 58 51 37
0 0 0 0 0 0 0 0 0 0 0 0 0 0 0 0 0 0 0 0 0 0 0 0 0 0 0 0 0 0 0 0 3 4 2 5 9 40 39 32 62 37 35
0 0 0 0 0 0 0 0 0 0 0 0 0 0 0 0 0 0 0 0 0 0 0 0 0 0 0 0 0 0 0 0 3 4 3 4 30 23 36 23 52 25 27
0 0 0 0 0 0 0 0 0 0 0 0 0 0 0 0 0 0 0 0 0 0 0 0 0 0 0 0 0 0 0 0 3 1 4 8 22 21 12 16 16 22 16
0 0 0 0 0 0 0 0 0 0 0 0 0 0 0 0 0 0 0 0 0 0 0 0 0 0 0 0 0 0 0 0 3 1 1 11 6 6 13 14 13 12 9
0 0 0 0 0 0 0 0 0 0 0 0 0 0 0 0 0 0 0 0 0 0 0 0 0 0 0 0 0 0 0 0 1 1 2 2 8 7 6 7 8 11 6
0 0 0 0 0 0 0 0 0 0 0 0 0 0 0 0 0 0 0 0 0 0 0 0 0 0 0 0 0 0 0 1 1 1 1 3 5 4 6 3 6 2 4
0 0 0 0 0 0 0 0 0 0 0 0 0 0 0 0 0 0 0 0 0 0 0 0 0 0 0 0 0 0 0 0 2 0 0 4 5 3 6 2 3 2 3
0 0 0 0 0 0 0 0 0 0 0 0 0 0 0 0 0 0 0 0 0 0 0 0 0 0 0 0 0 0 0 0 0 0 0 3 3 3 5 2 2 3 4
0 0 0 0 0 0 0 0 0 0 0 0 0 0 0 0 0 0 0 0 0 0 0 0 0 0 0 1 1 2 0 0 0 0 0 2 2 2 4 3 2 3 4
0 0 0 0 0 0 0 0 0 0 0 0 0 0 0 0 0 0 0 0 0 0 0 0 0 0 1 0 1 2 1 1 2 0 0 0 2 2 3 3 3 3 2
0 0 0 0 0 0 0 0 0 0 0 0 0 0 0 0 0 0 0 0 0 0 0 0 0 1 0 1 0 1 0 1 2 0 0 0 0 1 2 2 3 4 3
0 0 0 0 0 0 0 0 0 0 0 0 0 0 0 0 0 0 0 0 0 0 0 0 1 0 0 0 0 0 0 1 1 5 2 0 0 0 2 2 2 2 2
0 0 0 0 0 0 0 0 0 0 0 0 0 0 0 0 0 0 0 0 0 0 0 0 0 0 0 0 0 0 1 1 2 4 2 1 1 1 2 1 1 2 1
CIN
-0 -0 -0 -0 -0 -0 -0 -1 -1 -1 -1 -1 -1 -1 -0 -0 -0 -0 -0 -0 -0 -0 -0 -1 -1 -1 -1 -1 -0 -0 -1 -0 -0 -0 -0 -0 -0 -7 -8 -0 -1 -0 -5
-0 -0 -0 -0 -0 -1 -0 -0 -0 -1 -1 -0 -0 -0 -0 -0 -0 -0 -0 -0 -0 -1 -0 -1 -1 -1 -1 -1 -1 -1 -1 -0 -0 -0 -0 -0 -0 -0 -0 -25 -4 -0 -0
-0 -0 -0 -0 -0 -0 -0 -0 -0 -0 -0 -0 -0 -0 -0 -0 -0 -0 -0 -0 -0 -0 -0 -0 -1 -1 -1 -0 -1 -1 -0 -0 -1 -0 -0 -0 -0 -0 -0 -0 -12 -0 -3
-0 -0 -0 -0 -0 -0 -0 -1 -0 -0 -0 -0 -0 -0 -0 -0 -0 -0 -0 -0 -0 -0 -0 -0 -0 -0 -0 -0 -1 -0 -1 -0 -0 -0 -0 -0 -0 -0 -0 -0 -37 -1 -0
-0 -0 -0 -0 -0 -0 -0 -0 -0 -0 -0 -0 -0 -0 -0 -0 -0 -0 -0 -0 -0 -0 -0 -0 -0 -0 -0 -0 -0 -1 -1 -1 -0 -0 -0 -0 -0 -0 -0 -0 -0 -66 -0
-0 -0 -0 -0 -0 -0 -0 -0 -0 -0 -0 -0 -0 -0 -0 -0 -0 -0 -0 -0 -0 -0 -0 -0 -0 -0 -0 -0 -1 -1 -1 -1 -0 -1 -0 -0 -0 -0 -0 -0 -0 -27 -31
-0 -0 -0 -0 -0 -0 -0 -0 -0 -0 -0 -0 -0 -0 -0 -0 -0 -0 -0 -0 -0 -0 -0 -0 -0 -0 -0 -0 -0 -0 -0 -0 -1 -0 -0 -0 -1 -0 -0 -0 -0 -0 -0
-0 -0 -0 -0 -0 -0 -0 -0 -0 -0 -0 -0 -0 -0 -0 -0 -0 -0 -0 -0 -0 -0 -0 -0 -0 -0 -0 -0 -0 -0 -0 -0 -0 -0 -1 -0 -0 -0 -0 -0 -0 -0 -4
-0 -0 -0 -0 -0 -0 -0 -0 -0 -0 -0 -0 -0 -0 -0 -0 -0 -0 -0 -0 -0 -0 -0 -0 -0 -0 -0 -0 -0 -1 -0 -0 -0 -0 -1 -0 -0 -0 -0 -0 -0 -0 -15
-0 -0 -0 -0 -0 -0 -0 -0 -0 -0 -0 -0 -0 -0 -0 -0 -0 -0 -0 -0 -0 -0 -0 -0 -0 -0 -0 -0 -0 -0 -0 -0 -0 -0 -1 -1 -0 -0 -0 -0 -0 -0 -0
-0 -0 -0 -0 -0 -0 -0 -0 -0 -0 -0 -0 -0 -0 -0 -0 -0 -0 -0 -0 -0 -0 -0 -0 -0 -0 -0 -0 -0 -0 -0 -0 -0 -0 -0 -0 -0 -0 -0 -1 -0 -1 -1
-0 -0 -0 -0 -0 -0 -0 -0 -0 -0 -0 -0 -0 -0 -0 -0 -0 -0 -0 -0 -0 -0 -0 -0 -0 -0 -0 -0 -0 -0 -0 -0 -0 -0 -0 -0 -0 -0 -0 -0 -1 -0 -0
-0 -0 -0 -0 -0 -0 -0 -0 -0 -0 -0 -0 -0 -0 -0 -0 -0 -0 -0 -0 -0 -0 -0 -0 -0 -0 -0 -0 -0 -0 -0 -0 -0 -0 -0 -0 -0 -0 -1 -1 -1 -0 -0
-0 -0 -0 -0 -0 -0 -0 -0 -0 -0 -0 -0 -0 -0 -0 -0 -0 -0 -0 -0 -0 -0 -0 -0 -0 -0 -0 -0 -0 -0 -0 -1 -0 -0 -0 -0 -0 -0 -1 -0 -0 -0 -0
-0 -0 -0 -0 -0 -0 -0 -0 -0 -0 -0 -0 -0 -0 -0 -0 -0 -0 -0 -0 -0 -0 -0 -0 -0 -0 -0 -0 -0 -0 -0 -0 -0 -0 -0 -0 -0 -0 -1 -0 -0 -0 -0
-0 -0 -0 -0 -0 -0 -0 -0 -0 -0 -0 -0 -0 -0 -0 -0 -0 -0 -0 -0 -0 -0 -0 -0 -0 -0 -0 -0 -0 -0 -0 -0 -0 -0 -0 -0 -0 -0 -0 -0 -0 -0 -1
-0 -0 -0 -0 -0 -0 -0 -0 -0 -0 -0 -0 -0 -0 -0 -0 -0 -0 -0 -0 -0 -0 -0 -0 -0 -0 -0 -0 -0 -0 -0 -0 -0 -0 -0 -0 -0 -0 -0 -0 -0 -0 -0
-0 -0 -0 -0 -0 -0 -0 -0 -0 -0 -0 -0 -0 -0 -0 -0 -0 -0 -0 -0 -0 -0 -0 -0 -0 -0 -0 -0 -0 -0 -0 -0 -0 -0 -0 -0 -0 -0 -0 -0 -0 -0 -0
-0 -0 -0 -0 -0 -0 -0 -0 -0 -0 -0 -0 -0 -0 -0 -0 -0 -0 -0 -0 -0 -0 -0 -0 -0 -0 -0 -0 -0 -0 -0 -0 -0 -0 -0 -0 -0 -0 -0 -0 -0 -0 -0
-0 -0 -0 -0 -0 -0 -0 -0 -0 -0 -0 -0 -0 -0 -0 -0 -0 -0 -0 -0 -0 -0 -0 -0 -0 -0 -0 -0 -0 -0 -0 -0 -1 -0 -0 -0 -0 -0 -0 -0 -0 -0 -0
-0 -0 -0 -0 -0 -0 -0 -0 -0 -0 -0 -0 -0 -0 -0 -0 -0 -0 -0 -0 -0 -0 -0 -0 -0 -0 -0 -0 -0 -0 -0 -0 -0 -0 -0 -0 -0 -0 -0 -0 -0 -0 -0
-0 -0 -0 -0 -0 -0 -0 -0 -0 -0 -0 -0 -0 -0 -0 -0 -0 -0 -0 -0 -0 -0 -0 -0 -0 -0 -0 -0 -0 -0 -0 -0 -0 -0 -0 -0 -0 -0 -0 -0 -0 -0 -0
-0 -0 -0 -0 -0 -0 -0 -0 -0 -0 -0 -0 -0 -0 -0 -0 -0 -0 -0 -0 -0 -0 -0 -0 -0 -0 -0 -0 -1 -0 -0 -0 -0 -0 -0 -0 -0 -0 -0 -0 -0 -0 -0
-0 -0 -0 -0 -0 -0 -0 -0 -0 -0 -0 -0 -0 -0 -0 -0 -0 -0 -0 -0 -0 -0 -0 -0 -0 -0 -0 -0 -0 -0 -0 -0 -0 -0 -0 -0 -0 -0 -0 -0 -0 -0 -0
-0 -0 -0 -0 -0 -0 -0 -0 -0 -0 -0 -0 -0 -0 -0 -0 -0 -0 -0 -0 -0 -0 -0 -0 -0 -0 -0 -0 -0 -0 -0 -1 -1 -0 -0 -0 -0 -0 -0 -0 -0 -0 -0
-0 -0 -0 -0 -0 -0 -0 -0 -0 -0 -0 -0 -0 -0 -0 -0 -0 -0 -0 -0 -0 -0 -0 -0 -0 -0 -1 -0 -0 -1 -0 -0 -0 -0 -0 -0 -0 -0 -0 -0 -0 -0 -0
Wind_Speed
13 9 6 5 21 26 28 30 31 32 34 35 36 37 38 39 40 40 41 41 42 42 43 43 44 44 44 44 43 44 45 44 43 42 42 43 44 44 41 41 38 39 36
13 11 7 5 25 26 27 29 31 32 34 35 36 38 39 39 40 41 42 42 43 43 44 45 45 46 46 46 46 45 46 46 46 45 44 43 42 41 42 43 40 38 38
17 16 16 23 25 26 28 29 31 32 34 35 37 38 39 40 41 42 43 43 44 45 46 47 47 47 48 48 49 50 48 47 47 49 48 42 40 41 42 44 45 42 38
18 19 21 23 24 26 27 29 31 32 34 36 37 38 40 41 42 43 43 44 45 46 47 48 49 50 51 51 50 51 50 50 50 49 50 47 44 43 44 46 47 46 42
17 19 20 22 24 25 27 29 30 32 34 35 37 38 40 41 42 43 44 44 46 48 49 50 51 52 52 53 53 54 53 53 51 50 50 48 48 49 47 48 49 48 48
16 18 19 21 23 25 27 28 30 32 33 35 37 38 39 40 42 43 44 46 47 49 50 52 53 54 55 55 54 54 52 53 51 50 50 50 50 49 49 50 50 51 49
15 16 18 21 22 24 26 28 30 32 33 35 37 38 40 41 42 44 45 46 47 49 51 52 52 54 55 55 54 54 53 52 50 49 50 49 49 51 51 51 51 53 54
14 15 16 19 21 23 25 27 29 31 33 35 36 38 39 40 41 43 44 46 48 50 51 52 53 53 53 52 53 53 52 52 49 48 47 47 49 50 51 50 51 53 52
14 15 16 17 19 22 25 27 29 31 32 34 35 37 38 39 41 42 43 47 49 50 51 53 53 53 53 52 51 49 48 49 47 43 45 47 49 50 52 52 53 53 54
13 14 16 17 18 20 23 26 28 30 31 33 35 37 37 39 40 42 45 48 48 51 53 54 54 54 54 52 50 49 48 47 43 45 45 46 50 51 51 52 53 54 56
12 14 15 17 18 19 22 24 26 28 30 32 34 36 37 38 39 41 44 48 49 51 53 53 54 54 52 48 48 48 49 43 46 45 45 48 50 51 51 52 52 54 57
10 13 14 16 18 19 21 23 24 26 29 31 34 36 36 37 39 41 44 46 48 50 52 53 53 52 49 47 45 45 43 46 46 46 47 50 51 51 52 52 52 53 54
9 12 14 15 17 19 21 22 24 26 28 30 34 36 36 37 39 41 43 45 48 50 51 52 51 49 47 44 44 43 43 44 43 44 46 49 49 50 51 51 52 52 52
7 10 12 14 16 18 20 22 24 26 28 31 33 36 37 38 40 43 44 46 48 49 51 49 48 45 44 42 42 44 45 45 43 42 44 46 46 47 47 47 49 49 50
5 8 10 12 15 17 19 21 23 26 28 30 32 35 36 38 40 42 43 45 48 49 48 47 45 43 41 41 41 45 46 44 44 42 39 42 42 42 42 43 44 44 47
4 6 8 11 13 16 18 21 23 25 27 29 31 34 36 38 40 42 43 45 47 47 45 45 43 42 40 41 42 43 42 41 40 39 38 35 39 39 37 43 45 44 46
2 5 7 10 12 15 17 19 22 24 27 29 31 33 36 38 39 41 43 45 46 45 44 45 42 41 40 43 43 39 39 39 36 37 37 35 36 37 39 40 42 44 45
2 4 6 9 12 14 17 18 21 24 26 29 30 32 36 37 39 40 43 44 45 44 45 45 43 42 41 43 48 42 37 36 36 37 35 35 37 36 37 38 39 41 43
1 3 5 8 11 14 15 17 19 22 25 27 30 32 35 36 38 40 41 43 43 44 44 43 42 42 40 42 48 41 33 35 32 36 33 34 37 36 34 34 36 38 40
2 2 5 7 10 13 15 16 18 20 23 26 29 32 34 35 38 39 40 42 42 43 43 41 42 41 39 41 42 40 30 32 31 34 31 34 35 35 32 30 31 34 38
3 2 3 6 9 12 14 15 17 20 22 25 29 31 33 35 37 39 40 41 42 42 41 40 41 41 40 42 41 41 33 34 35 30 30 30 31 30 29 27 26 29 31
5 3 2 4 7 10 12 14 17 19 21 23 27 29 32 34 36 39 40 40 41 41 39 40 41 40 38 41 41 38 37 34 34 25 25 27 30 26 26 23 24 24 24
8 5 3 3 5 9 11 13 16 18 20 22 26 29 31 33 36 38 39 40 40 40 38 39 39 38 37 37 39 37 38 32 32 28 24 24 26 24 22 20 20 19 17
9 6 3 3 5 7 9 12 15 18 20 23 25 27 29 32 35 37 38 39 39 38 37 37 35 34 34 35 34 34 21 28 27 25 24 22 26 22 22 21 17 14 11
9 7 4 2 3 6 8 11 14 17 19 21 24 26 29 31 33 36 36 37 38 37 35 36 35 33 32 31 32 31 35 26 27 24 26 23 22 19 17 19 16 12 12
8 7 5 3 2 4 7 9 13 16 18 21 24 26 28 30 32 35 35 36 37 37 35 35 33 31 31 31 29 29 31 28 27 25 24 20 20 16 15 22 15 12 10
Wind_Direction
129 160 186 196 345 13 18 25 20 16 14 14 17 15 10 5 1 354 352 349 347 345 345 343 341 336 337 337 333 326 320 318 315 314 313 305 296 289 286 280 278 272 272
145 152 177 95 24 15 10 18 19 19 18 19 14 9 6 3 1 358 358 355 352 346 345 345 343 340 337 333 330 329 324 320 317 313 311 309 301 296 287 281 278 273 270
95 104 96 28 18 19 14 13 16 17 18 12 10 8 5 2 360 358 355 355 353 350 345 343 341 339 336 334 330 323 322 321 315 312 308 309 302 297 291 282 275 271 269
70 51 39 29 23 20 13 12 16 17 13 10 8 7 5 2 359 357 354 352 350 348 345 342 339 336 333 331 329 325 321 317 312 310 308 302 298 294 289 282 275 269 265
56 40 38 32 28 22 18 16 17 16 13 12 10 8 5 4 1 359 358 355 352 349 346 343 340 338 335 331 327 323 318 314 314 312 305 300 291 287 284 280 274 268 262
54 46 39 31 26 22 19 18 17 14 13 11 9 7 6 4 2 359 358 355 353 351 349 345 341 338 335 332 329 324 321 318 313 308 304 295 288 284 280 278 272 267 264
52 47 39 32 27 23 19 18 15 13 12 10 8 6 4 3 2 0 358 357 355 353 349 346 344 340 337 333 330 325 323 319 316 309 300 293 287 282 278 276 269 265 259
42 39 38 33 27 24 22 18 16 13 12 10 8 6 5 4 3 1 360 358 355 351 350 347 344 342 339 336 332 327 324 318 316 308 299 291 286 281 276 274 269 264 261
34 32 30 32 28 24 20 18 16 13 12 10 8 6 5 5 3 3 1 358 354 352 351 347 345 344 340 338 334 331 326 321 316 308 300 291 282 279 276 270 269 264 260
34 29 26 25 25 23 20 16 14 12 11 9 7 5 5 5 5 2 0 357 356 354 351 349 347 345 342 339 335 331 326 320 316 308 299 289 281 277 275 269 268 264 259
24 22 21 20 21 21 17 15 15 14 11 10 7 5 5 6 5 2 0 357 357 355 352 351 349 346 344 342 337 333 327 323 315 308 299 288 280 274 272 268 267 263 259
21 13 16 18 16 16 14 15 16 14 12 9 6 5 7 6 5 2 0 359 357 354 352 351 351 349 348 344 340 336 331 322 317 309 299 289 280 275 269 267 265 264 261
24 11 11 13 12 11 13 14 14 12 9 8 7 6 7 7 5 3 1 359 357 355 354 353 353 353 350 346 342 338 333 327 321 312 304 292 283 277 269 265 264 263 261
29 21 11 10 10 11 13 12 11 9 9 7 6 6 7 5 3 1 0 359 357 356 355 357 355 355 352 349 344 339 333 329 326 317 307 297 286 279 273 268 265 263 260
28 16 13 13 12 11 11 10 9 9 8 7 7 7 8 5 4 2 1 0 358 358 358 358 357 356 354 350 347 342 336 335 330 321 311 299 293 285 278 273 268 266 261
15 19 19 15 13 11 9 8 9 8 7 7 7 8 8 6 4 3 2 1 360 0 0 359 358 356 356 352 350 347 344 340 338 323 313 308 299 290 285 279 270 269 264
4 18 16 14 12 9 8 9 9 8 7 6 7 8 6 6 5 3 2 1 1 2 1 360 360 358 356 353 351 354 350 345 341 325 314 304 312 298 285 285 276 271 267
350 8 14 12 8 6 6 7 7 7 6 6 7 8 6 6 5 3 2 2 2 3 2 2 2 360 358 354 348 351 353 349 335 321 312 304 312 307 292 283 279 274 269
316 359 3 4 2 2 5 6 7 7 7 7 7 7 6 7 6 4 3 3 4 4 4 4 4 2 0 357 350 352 356 350 336 318 314 317 313 308 299 285 281 279 275
261 328 351 357 358 1 2 5 6 6 7 7 7 7 7 7 6 6 5 5 6 5 5 7 5 5 4 1 357 356 359 351 337 315 312 317 317 312 300 291 286 286 279
248 288 331 348 354 358 360 2 3 3 5 6 7 8 8 8 8 6 6 7 8 7 7 9 8 6 7 6 4 2 359 341 328 310 310 312 314 310 309 297 296 292 282
224 234 292 334 350 356 0 3 4 5 6 7 7 9 9 10 9 8 8 9 9 8 10 10 10 9 10 11 10 10 358 339 320 310 308 311 317 313 313 310 306 299 292
213 222 254 317 346 355 1 4 5 7 7 7 6 8 10 11 10 10 11 11 11 11 12 12 12 13 12 15 17 21 1 330 309 312 308 311 315 318 323 318 318 310 308
210 215 244 304 340 355 3 4 4 4 5 7 8 10 11 13 12 12 13 14 14 14 15 14 15 15 16 16 19 22 356 312 309 297 309 312 320 319 331 334 326 326 320
203 210 224 267 329 353 1 5 5 7 8 9 10 11 13 14 14 14 16 16 16 17 17 16 16 17 18 18 19 21 13 317 317 305 302 311 322 318 329 338 338 341 346
201 206 214 231 309 352 4 6 7 8 9 10 11 13 14 16 16 16 18 19 19 19 19 19 19 20 20 22 23 25 353 320 318 314 304 301 309 309 319 348 347 356 4